Sioux Falls, SD

9:15 PM CDT on March 28, 2017 (GMT -0500)
Foss

Weather History for KFSD - October, 2012

Change the Weather History Date:

Monday, October 1, 2012

  Actual Average Record
Temperature  
Mean Temperature 57 °F 54 °F  
Max Temperature 71 °F 67 °F 91 °F (1963)
Min Temperature 42 °F 42 °F 23 °F (1974)
Degree Days  
Heating Degree Days 8 11  
Month to date heating degree days 8 11  
Since 1 July heating degree days 171 215  
Cooling Degree Days 0 0  
Month to date cooling degree days 0 0  
Year to date cooling degree days 1182 685  
Growing Degree Days 8 (Base 50)    
Moisture  
Dew Point 40 °F    
Average Humidity 49    
Maximum Humidity 78    
Minimum Humidity 20    
Precipitation  
Precipitation T in 0.09 in 1.36 in (1930)
Month to date precipitation T 0.09  
Year to date precipitation 14.82 22.25  
Snow  
Snow 0.00 in 0.00 in 2.70 in (1999)
Month to date snowfall 0.0 0.0  
Since 1 July snowfall 0.0 T  
Since 1 September snowfall 0.0 T  
Snow Depth 0.00 in    
Sea Level Pressure  
Sea Level Pressure 30.01 in    
Wind  
Wind Speed 12 mph (NNW)    
Max Wind Speed 25 mph    
Max Gust Speed 32 mph    
Visibility 10 miles    
Events      
T = Trace of Precipitation, MM = Missing Value Source: NWS Daily Summary

Daily Weather History Graph

Daily Weather History Graph

Search for Another Location

Airport or City:

Trip Planner

Search our weather history database for the weather conditions in past years. The results will help you decide how hot, cold, wet, or windy it might be!

Date:

Astronomy

Oct. 01, 2012 Rise Set
Actual Time 7:25 AM CDT 7:07 PM CDT
Civil Twilight 6:56 AM CDT 7:35 PM CDT
Nautical Twilight 6:23 AM CDT 8:08 PM CDT
Astronomical Twilight 5:49 AM CDT 8:42 PM CDT
Moon 7:39 PM CDT (10/1) 9:00 AM CDT (10/1)
Length of Visible Light 12h 39m
Length of Day
11h 41m
Full, 98% of the Moon is Illuminated
Oct 1
Full
Oct 8
Last Quarter
Oct 15
New
Oct 21
First Quarter
Oct 29
Full

Hourly Weather History & Observations

Time (CDT) Temp. Dew Point Humidity Pressure Visibility Wind Dir Wind Speed Gust Speed Precip Events Conditions
12:56 AM 48.0 °F 39.9 °F 74% 29.93 in 10.0 mi Calm Calm - N/A   Clear
1:56 AM 46.9 °F 37.9 °F 71% 29.93 in 10.0 mi Calm Calm - N/A   Clear
2:56 AM 62.1 °F 46.0 °F 56% 29.92 in 10.0 mi North 12.7 mph - N/A   Clear
3:56 AM 62.6 °F 48.2 °F 59% 29.94 in 10.0 mi North 11.5 mph - N/A   Clear
4:56 AM 64.0 °F 48.9 °F 58% 29.93 in 10.0 mi North 15.0 mph 20.7 mph N/A   Clear
5:56 AM 59.0 °F 52.0 °F 78% 29.95 in 10.0 mi North 18.4 mph - 0.00 in   Overcast
6:56 AM 59.0 °F 48.9 °F 69% 29.98 in 10.0 mi North 8.1 mph - N/A   Partly Cloudy
7:56 AM 57.9 °F 48.9 °F 72% 30.01 in 10.0 mi North 10.4 mph - N/A   Clear
8:56 AM 57.9 °F 45.0 °F 62% 30.03 in 10.0 mi NNW 17.3 mph 21.9 mph N/A   Mostly Cloudy
9:56 AM 59.0 °F 44.1 °F 58% 30.06 in 10.0 mi North 18.4 mph 25.3 mph N/A   Mostly Cloudy
10:56 AM 64.0 °F 43.0 °F 46% 30.07 in 10.0 mi North 16.1 mph - N/A   Scattered Clouds
11:56 AM 66.9 °F 42.1 °F 40% 30.07 in 10.0 mi North 17.3 mph - N/A   Clear
12:56 PM 68.0 °F 41.0 °F 37% 30.06 in 10.0 mi North 20.7 mph 28.8 mph N/A   Partly Cloudy
1:56 PM 70.0 °F 39.9 °F 33% 30.03 in 10.0 mi NNW 20.7 mph 29.9 mph N/A   Partly Cloudy
2:56 PM 69.1 °F 37.9 °F 32% 30.01 in 10.0 mi North 15.0 mph 25.3 mph N/A   Partly Cloudy
3:56 PM 69.8 °F 37.4 °F 31% 30.01 in 10.0 mi North 19.6 mph 24.2 mph N/A   Partly Cloudy
4:56 PM 69.1 °F 37.0 °F 31% 30.00 in 10.0 mi North 16.1 mph 26.5 mph N/A   Partly Cloudy
5:56 PM 66.9 °F 35.1 °F 31% 30.01 in 10.0 mi North 18.4 mph 24.2 mph N/A   Clear
6:56 PM 63.0 °F 32.0 °F 31% 30.02 in 10.0 mi NNW 12.7 mph - N/A   Clear
7:56 PM 57.0 °F 30.9 °F 37% 30.03 in 10.0 mi NNW 9.2 mph - N/A   Clear
8:56 PM 50.0 °F 32.0 °F 50% 30.04 in 10.0 mi NNW 8.1 mph - N/A   Clear
9:56 PM 50.0 °F 30.9 °F 48% 30.05 in 10.0 mi Calm Calm - N/A   Clear
10:56 PM 48.0 °F 32.0 °F 54% 30.04 in 10.0 mi NW 3.5 mph - N/A   Clear
11:56 PM 46.9 °F 32.0 °F 56% 30.04 in 10.0 mi NW 3.5 mph - N/A   Clear